This demonstration page uses our WeatherBlox Daily Observations layout. Learn more.

41.55636, -103.73856

Hourly Observations for September 12, 2019

Temp ( °F °C ) Dew Point ( °F °C ) Humidity (%) Winds ( mph kmh ) Pressure ( in mb ) Visibility ( mi km ) Precip ( " mm )
12:58 am 00:58 Cloudy 54 12.2 48 8.9 80 80 NW 12 19 30 1016 10 16.09344 0 0
1:58 am 01:58 Mostly Cloudy 51 10.7 46 7.5 81 81 N 10 17 30 1016 10 16.09344 0 0
2:58 am 02:58 Mostly Cloudy 51 10.6 43 6.2 74 74 NW 16 26 30.03 1017 10 16.09344 0 0
3:58 am 03:58 Mostly Cloudy 49 9.3 41 5.1 75 75 NNW 18 30 30.03 1017 10 16.09344 0 0
4:58 am 04:58 Clear 47 8.1 40 4.6 79 79 WNW 12 19 30.06 1018 10 16.09344 0 0
5:58 am 05:58 Clear 45 7 40 4.3 83 83 WNW 9 15 30.06 1018 10 16.09344 0 0
6:58 am 06:58 Sunny 46 7.8 41 4.9 82 82 WNW 9 15 30.06 1018 10 16.09344 0 0
7:58 am 07:58 Sunny 53 11.5 43 6.3 71 71 NW 21 33 30.06 1018 10 16.09344 0 0
8:58 am 08:58 Sunny 56 13.6 45 7 65 65 NW 23 37 30.06 1018 10 16.09344 0 0
10:56 am 10:56 Sunny 61 15.9 45 7.4 57 57 WNW 28 44 30.06 1018 10 16.09344 0 0
11:56 am 11:56 Sunny 63 17.1 43 6.3 49 49 NW 29 46 30.09 1019 10 16.09344 0 0
12:56 pm 12:56 Sunny 64 18 44 6.5 47 47 NW 29 46 30.09 1019 10 16.09344 0 0
1:58 pm 13:58 Sunny 65 18.6 43 5.9 44 44 NW 26 43 30.09 1019 10 16.09344 0 0
2:58 pm 14:58 Sunny 66 18.9 40 4.7 39 39 NNW 22 35 30.09 1019 10 16.09344 0 0
3:58 pm 15:58 Mostly Sunny 67 19.5 41 4.8 38 38 NNW 21 33 30.09 1019 10 16.09344 0 0
4:58 pm 16:58 Sunny 67 19.4 40 4.6 38 38 NNW 17 28 30.12 1020 10 16.09344 0 0
5:58 pm 17:58 Sunny 66 18.7 40 4.3 39 39 NNW 14 22 30.12 1020 10 16.09344 0 0
6:58 pm 18:58 Sunny 60 15.8 40 4.3 47 47 NNW 10 17 30.15 1021 10 16.09344 0 0
7:58 pm 19:58 Clear 54 12.3 40 4.5 59 59 NNW 8 13 30.18 1022 10 16.09344 0 0
8:58 pm 20:58 Clear 51 10.3 41 4.8 69 69 WNW 5 7 30.18 1022 10 16.09344 0 0
9:58 pm 21:58 Clear 47 8.3 41 5.2 81 81 WSW 5 7 30.21 1023 10 16.09344 0 0
10:58 pm 22:58 Clear 47 8.1 41 5 81 81 W 9 15 30.24 1024 10 16.09344 0 0
11:58 pm 23:58 Clear 45 7 40 4.2 83 83 NW 7 11 30.27 1025 10 16.09344 0 0

Powered by AerisWeather